Regional Weather Roundup
Issued by NWS

Home | Current Version | Previous Version | Text Only | Print | Product List | Glossary Off
Versions: 1 2 3 4 5 6 7 8 9 10 11 12 13 14 15 16 17 18 19 20 21 22 23 24 25 26 27 28 29 30 31 32 33 34 35 36 37 38 39 40 41 42 43 44 45 46 47 48 49 50

000
ASUS43 KOAX 030502
RWRNE
OMARWRNE ALL

WEATHER ROUNDUP FOR NEBRASKA
NATIONAL WEATHER SERVICE OMAHA NE
1200 AM CDT WED JUN 03 2015

NOTES: SATELLITE DATA IS BEING USED TO AUGMENT CLOUD COVER ABOVE
       12000 FEET.
       "FAIR" INDICATES FEW OR NO CLOUDS BELOW 12,000 FEET WITH NO
       SIGNIFICANT WEATHER AND/OR OBSTRUCTIONS TO VISIBILITY.

  * THESE STATIONS DO NOT REPORT WEATHER SUCH AS RAIN...SNOW OR FOG.

NEZ001>004-019>022-054>056-030600-
NEBRASKA PANHANDLE

CITY           SKY/WX    TMP DP  RH WIND       PRES   REMARKS
SCOTTSBLUFF    PTCLDY    62  51  67 E3        29.89R
ALLIANCE       PTCLDY    60  54  80 N8        29.89R
CHADRON        PTCLDY    60  55  83 N14G23    29.92R
SIDNEY         PTCLDY    64  57  78 NE10      29.87R
$$

NEZ057>060-069>072-079>082-030600-
SOUTHWEST NEBRASKA

CITY           SKY/WX    TMP DP  RH WIND       PRES   REMARKS
NORTH PLATTE   CLOUDY    72  55  55 N28G37    29.86R
IMPERIAL       CLEAR     70  64  81 SE10      29.79R
MCCOOK         CLEAR     72  65  78 E6        29.77R
$$

NEZ005>010-023>029-035>040-094-030600-
NORTH CENTRAL NEBRASKA

CITY           SKY/WX    TMP DP  RH WIND       PRES   REMARKS
VALENTINE      LGT RAIN  65  56  72 NE26G36   29.76F
BROKEN BOW     CLOUDY    73  65  75 SE7       29.85R
ORD            CLOUDY    73  65  75 SE10      29.82R
$$

NEZ041-046>049-061>064-073>077-083>087-030600-
SOUTH CENTRAL NEBRASKA

CITY           SKY/WX    TMP DP  RH WIND       PRES   REMARKS
GRAND ISLAND   MOCLDY    72  65  78 SE14G21   29.84S
HASTINGS       PTCLDY    72  66  81 SE16      29.84R
KEARNEY *      MOCLDY    72  64  78 SE12      29.83S
$$

NEZ011>018-030>034-042>045-030600-
NORTHEAST NEBRASKA

CITY           SKY/WX    TMP DP  RH WIND       PRES   REMARKS
NORFOLK        PTCLDY    66  61  84 SE13      29.86S
COLUMBUS *     CLEAR     66  59  77 SE8       29.88S
TEKAMAH        PTCLDY    65  58  78 SE15      29.90R
$$

NEZ050>053-065>068-078-088>093-030600-
SOUTHEAST NEBRASKA

CITY           SKY/WX    TMP DP  RH WIND       PRES   REMARKS
LINCOLN        CLEAR     68  61  78 SE10      29.88S
OMAHA EPPLEY   CLEAR     65  58  78 SE14      29.91S
FALLS CITY     PTCLDY    67  58  72 SE13      29.90F
$$

NEZ044-045-051>053-067-030600-
OMAHA AREA

CITY           SKY/WX    TMP DP  RH WIND       PRES   REMARKS
OMAHA EPPLEY   CLEAR     65  58  78 SE14      29.91S
OFFUTT AFB     CLEAR     63  58  83 E7        29.90S
$$



USA.gov is the U.S. government's official web portal to all federal, state and local government web resources and services.